Location: Newark
(40.4667°N, 5.6000°W)
Time: 07:54:50
(UTC+00:00)

Tiangong 2 - Visible Passes

Search period start: 22 March 2019 00:00
Search period end: 01 April 2019 00:00
Orbit: 379 x 390 km, 42.8° (Epoch: 22 March)

Date Brightness Start Highest point End Pass type
(mag) Time Alt. Az. Time Alt. Az. Time Alt. Az.
22 Mar 1.3 04:42:57 61° SSE 04:42:57 61° SSE 04:45:45 10° ESE visible
23 Mar 2.3 05:18:48 22° WSW 05:19:39 25° SSW 05:22:20 10° SSE visible
24 Mar 3.6 04:22:34 16° SE 04:22:34 16° SE 04:23:18 10° SE visible
25 Mar 3.6 04:58:45 11° S 04:58:45 11° S 04:59:04 10° S visible
29 Mar 3.8 20:43:19 10° SW 20:43:41 12° SW 20:43:41 12° SW visible
30 Mar 2.3 19:44:15 10° SSW 19:46:53 25° SSE 19:47:39 22° SE visible
31 Mar 1.1 20:20:45 10° WSW 20:23:40 66° SSW 20:23:40 66° SSW visible
